Location: Tucson
(32.2217°N, 110.9265°W)
Time: 06:58:13
(UTC-07:00)

Hubble Space Telescope - Visible Passes

Search period start: 04 December 2023 00:00
Search period end: 14 December 2023 00:00
Orbit: 519 x 522 km, 28.5° (Epoch: 03 December)

Date Brightness Start Highest point End Pass type
(mag) Time Alt. Az. Time Alt. Az. Time Alt. Az.
04 Dec 3.2 18:24:37 10° WSW 18:27:22 18° SSW 18:30:09 10° SSE visible
05 Dec 3.4 18:08:28 10° WSW 18:10:53 16° SSW 18:13:19 10° SSE visible
06 Dec 3.6 17:52:26 10° SW 17:54:23 13° SSW 17:56:21 10° S visible
